Skip Page Navigation
NASA JPL Caltech
NASA Logo - Jet Propulsion Laboratory + View the NASA Portal
+ Near-Earth Object (NEO) Program
Search JPL
JPL Home Earth Solar System Stars & Galaxies Technology
JPL Solar System Dynamics
BODIES ORBITS EPHEMERIDES TOOLS PHYSICAL DATA DISCOVERY FAQ SITE MAP
JPL Small-Body Database Browser
Search: [ help ]  
12619 Anubelshunu (6242 P-L)
Classification: Main-belt Asteroid          SPK-ID: 2012619
Ephemeris | Orbit Diagram | Orbital Elements | Physical Parameters | Discovery Circumstances ]

[ show orbit diagram ]
Orbital Elements at Epoch 2456400.5 (2013-Apr-18.0) TDB
Reference: MPO231502 (heliocentric ecliptic J2000)
 Element Value Uncertainty (1-sigma)   Units 
e 0.0740432 n/a  
a 2.4561141 n/a AU
q 2.2742556 n/a AU
i 5.55622 n/a deg
node 220.75840 n/a deg
peri 295.64787 n/a deg
M 88.73295 n/a deg
tp 2456053.9597823
(2012-May-06.45978230)
n/a JED
period 1405.9543651
3.85
n/a
n/a
d
yr
n 0.25605383 n/a deg/d
Q 2.6379726 n/a AU
  Orbit Determination Parameters
   # obs. used (total)      668  
   first obs. used      1960-??-??  
   last obs. used      2012-05-15  
   # oppositions      14  
   planetary ephem.      DE403  
   condition code      0  
   fit RMS      0.57  
   data source      MPC:mpn  
   producer      MPCLINUX  

Additional Information
 T_jup = 3.482 

Ephemeris | Orbit Diagram | Orbital Elements | Physical Parameters | Discovery Circumstances ]

Physical Parameter Table
Parameter Symbol Value Units Sigma Reference Notes
absolute magnitude H 14.4 mag n/a PDS3 (MPC 36774)  

12619 Anubelshunu           Discovered 1960 Sept. 24 by C. J. van Houten and I. van Houten-Groeneveld on Palomar Schmidt plates taken by T. Gehrels.
Anu Belshunu (249 B.C.-c. 185 B.C.) was lamentation priest and interpreter of the astrological omen series Enuma Anu Enlil at the Temple of Anu in Uruk. A collection of astrological cuneiform tablets from his library contains some of the earliest realistic depictions of the Babylonian constellations.
NOTE: some special characters may not display properly (any characters within {} are an attempt to place the proper accent above a character)
Reference: 20080122/MPCPages.arcLast Updated: 2008-03-05

Alternate Designations
 6242 P-L = 1989 EF4 
Ephemeris | Orbit Diagram | Orbital Elements | Physical Parameters | Discovery Circumstances ]
ABOUT SSD CREDITS/AWARDS PRIVACY/COPYRIGHT GLOSSARY LINKS
FirstGov 2013-Jun-19 07:52 UT
(server date/time)  
NASA Home Page
Site Manager:   Donald K. Yeomans
Webmaster  Alan B. Chamberlin